This is the latest recevied weather packets stored in our database for station/object AJ5AG. If no packets are shown the sender has not sent any weather packets the latest 1 day(s).
| Time | Temp. | Humidity | Pressure | Rain* | Wind** | Luminosity | Snow |
|---|---|---|---|---|---|---|---|
| 1778035524 | 25.56° C | 83% | 1010.7 hPa | 0 mm | - | 0 W/m² | - |
| 1778035220 | 25.56° C | 82% | 1010.6 hPa | 0 mm | - | 0 W/m² | - |
| 1778034916 | 25.56° C | 82% | 1010.4 hPa | 0 mm | - | 0 W/m² | - |
| 1778034614 | 25.56° C | 82% | 1010.4 hPa | 0 mm | - | 0 W/m² | - |
| 1778034311 | 25.56° C | 82% | 1010.3 hPa | 0 mm | - | 0 W/m² | - |
| 1778034009 | 25.56° C | 82% | 1010.6 hPa | 0 mm | - | 0 W/m² | - |
| 1778033706 | 25.56° C | 82% | 1010.5 hPa | 0 mm | - | 0 W/m² | - |
| 1778032495 | 26.11° C | 80% | 1010 hPa | 0 mm | - | 0 W/m² | - |
| 1778032192 | 26.11° C | 80% | 1009.7 hPa | 0 mm | - | 0 W/m² | - |
| 1778031888 | 26.11° C | 80% | 1009.8 hPa | 0 mm | - | 0 W/m² | - |
| 1778031585 | 26.11° C | 80% | 1009.7 hPa | 0 mm | - | 0 W/m² | - |
| 1778031283 | 26.11° C | 81% | 1009.7 hPa | 0 mm | - | 0 W/m² | - |
| 1778030979 | 26.11° C | 80% | 1009.6 hPa | 0 mm | - | 0 W/m² | - |
| 1778030676 | 26.11° C | 80% | 1009.7 hPa | 0 mm | - | 0 W/m² | - |
| 1778030373 | 26.11° C | 80% | 1009.5 hPa | 0 mm | - | 0 W/m² | - |
| 1778029767 | 26.67° C | 79% | 1009.2 hPa | 0 mm | - | 1 W/m² | - |
| 1778029466 | 26.67° C | 79% | 1009.4 hPa | 0 mm | - | 1 W/m² | - |
| 1778029161 | 26.67° C | 79% | 1009.3 hPa | 0 mm | - | 2 W/m² | - |
| 1778028554 | 26.67° C | 78% | 1009.1 hPa | 0 mm | - | 6 W/m² | - |
| 1778028253 | 26.67° C | 78% | 1009.1 hPa | 0 mm | - | 8 W/m² | - |
| 1778027948 | 26.67° C | 78% | 1009.2 hPa | 0 mm | - | 10 W/m² | - |
| 1778027342 | 27.22° C | 77% | 1009.1 hPa | 0 mm | - | 14 W/m² | - |
| 1778026733 | 27.22° C | 77% | 1008.8 hPa | 0 mm | - | 23 W/m² | - |
| 1778026430 | 27.22° C | 77% | 1009.1 hPa | 0 mm | - | 33 W/m² | - |
| 1778025522 | 27.78° C | 76% | 1009.2 hPa | 0 mm | - | 36 W/m² | - |
* Rain latest hour (hover to see other rain measurements)
** Current wind speed in m/s (hover to see current wind gust speed)